Wind_Speed
17 11 16 17 17 7 12 11 12 10 8 7 7 13 14 18 16 15 21 22 25 24 24 21 19 17 17 17 17 17 18 18 20 15 13 10 6 7 7 6 8 8 7 8
10 16 14 12 8 9 11 12 14 10 6 6 9 10 14 17 13 19 19 21 24 26 26 23 20 18 17 18 18 18 18 20 21 15 13 10 8 7 7 8 7 8 7 7
14 12 12 14 13 13 13 14 11 13 6 3 12 8 10 15 17 14 18 18 22 27 28 26 23 21 19 19 19 19 19 20 22 16 14 13 9 8 7 8 5 6 8 7
11 7 17 17 16 16 16 5 6 9 10 10 14 7 6 6 7 8 12 18 18 25 25 27 25 24 22 21 20 18 19 21 23 21 14 13 10 8 7 7 7 8 8 8
10 15 18 17 16 14 5 10 10 8 10 4 13 7 8 9 9 11 14 14 21 20 25 28 28 27 25 23 21 21 21 22 20 21 17 14 12 9 7 8 9 8 7 7
6 14 15 12 10 13 8 10 9 8 9 11 10 11 6 5 4 3 3 10 22 23 23 25 27 27 26 25 24 22 23 25 24 23 21 19 14 12 11 11 9 7 6 7
11 11 4 4 14 13 14 16 10 11 9 9 12 7 11 8 6 6 6 6 12 27 26 25 27 30 29 27 24 23 23 26 28 27 24 22 18 15 14 11 11 9 8 6
12 11 6 2 7 12 19 18 10 13 13 12 6 9 8 8 8 11 12 10 6 17 25 29 28 29 30 27 25 23 23 24 27 29 27 25 21 16 14 14 12 11 9 8
11 6 5 3 1 5 19 15 6 6 11 9 13 13 13 8 11 15 17 16 10 2 13 23 24 26 28 29 28 26 24 23 22 27 28 28 25 21 16 16 15 14 12 11
2 9 2 3 3 1 7 9 10 9 14 14 10 16 10 7 10 13 17 20 20 13 8 12 22 23 22 25 27 26 25 25 23 22 26 27 26 25 21 19 18 17 14 14
2 5 8 6 2 2 6 11 10 8 5 14 10 8 7 9 8 10 15 18 21 23 17 6 8 10 17 20 21 24 25 24 23 22 23 25 25 26 23 22 21 20 18 16
3 3 9 8 6 1 3 5 9 11 12 6 6 7 6 11 8 10 15 18 20 22 21 20 15 6 12 15 18 20 20 23 23 21 23 24 26 24 23 24 23 21 21 20
4 4 8 9 8 5 4 1 4 8 8 13 10 9 10 12 13 12 14 17 20 22 23 21 15 12 11 8 9 16 17 18 20 20 21 24 23 23 30 28 26 24 22 21
4 1 6 1 7 4 7 3 1 8 11 9 4 19 13 11 10 13 14 16 18 21 22 22 22 19 11 3 3 5 5 10 15 18 18 20 27 30 30 29 32 27 26 24
3 3 2 7 6 4 2 2 2 1 5 5 18 17 13 10 10 11 13 14 17 19 22 22 22 21 20 15 8 1 8 11 11 13 18 19 19 19 23 24 24 33 32 30
1 3 3 1 2 1 4 4 2 2 4 7 11 14 11 11 11 10 11 12 15 17 17 17 18 19 21 21 18 10 2 4 7 13 14 16 18 19 20 20 22 25 30 33
1 5 6 5 2 3 8 11 7 6 4 6 9 14 10 9 8 8 9 11 13 14 14 15 16 16 17 17 19 17 13 4 8 9 7 11 17 19 19 20 21 23 27 30
3 5 3 3 5 8 7 4 2 6 8 4 8 8 6 6 6 8 10 10 11 13 13 13 14 15 15 15 16 16 17 14 7 4 11 15 15 15 16 19 22 22 22 25
3 5 3 4 10 5 7 5 6 12 11 4 8 7 5 3 4 8 6 8 9 11 12 13 14 14 14 15 16 16 16 16 15 12 8 10 19 17 18 19 20 22 24 24
4 4 6 5 4 6 9 8 5 2 7 7 6 6 3 3 8 13 4 8 9 10 11 13 15 15 14 15 16 15 15 15 16 16 15 13 11 14 16 14 20 20 23 24
7 6 9 8 6 2 7 9 8 7 6 9 6 4 1 3 6 7 9 10 10 12 13 14 14 14 15 16 17 17 16 15 17 18 17 17 16 14 14 18 18 20 25 26
7 6 6 6 6 7 13 9 5 9 10 8 4 2 2 3 5 9 11 13 14 14 15 14 16 15 15 16 17 18 17 18 20 21 21 19 18 16 14 14 18 20 22 25
5 4 3 5 2 6 15 5 8 4 2 4 3 3 4 5 7 10 12 13 15 16 17 17 16 18 18 16 16 19 20 21 21 22 24 24 21 21 18 19 13 15 17 21
5 5 3 2 10 11 9 6 6 6 6 5 3 2 2 1 4 8 11 12 13 14 16 17 18 18 20 20 20 20 21 22 22 23 24 24 26 25 23 20 18 18 13 15
4 9 6 7 5 7 11 9 9 9 8 6 5 4 2 1 4 8 12 14 15 15 15 16 16 18 18 19 23 24 23 23 23 23 22 23 21 22 28 24 19 21 20 18
11 8 6 4 8 11 4 17 13 12 9 6 5 3 3 3 4 7 9 12 16 19 18 19 18 20 22 22 23 23 23 22 23 23 22 21 21 21 22 28 29 28 32 25
Wind_Direction
187 197 202 190 208 331 180 186 157 109 152 182 150 138 154 169 179 180 184 189 185 188 185 185 182 184 187 191 190 187 184 186 180 179 180 182 181 193 185 180 186 189 185 164
174 216 192 185 172 190 197 167 142 135 115 223 160 162 149 157 181 187 188 189 192 189 188 190 189 188 189 193 194 193 192 192 186 190 186 189 196 198 217 178 193 186 183 168
199 190 157 194 185 192 195 190 164 160 154 180 152 142 168 164 152 188 183 201 195 196 196 193 195 194 191 195 198 199 197 196 192 189 191 198 195 187 189 198 189 200 192 179
218 144 183 189 192 207 178 226 161 172 198 186 218 124 111 161 207 184 193 195 210 196 206 199 201 199 198 201 202 201 204 202 202 201 200 200 198 199 199 200 199 199 189 192
179 182 188 190 192 205 191 167 196 193 219 198 202 232 100 126 171 202 203 198 211 217 203 203 201 200 201 205 205 205 212 209 206 214 204 215 207 211 213 196 213 207 198 195
133 193 193 189 178 202 123 174 174 197 215 220 185 244 99 91 51 127 208 247 211 214 212 208 203 201 205 207 210 209 212 222 220 222 222 222 216 211 210 203 209 207 212 221
161 163 133 262 197 195 197 179 173 195 201 226 150 217 81 93 53 19 6 335 241 206 209 207 205 203 204 204 206 210 214 220 226 230 229 231 228 227 223 218 202 206 208 218
169 164 188 228 242 192 205 204 190 191 196 172 150 158 111 100 71 45 27 19 9 204 202 205 204 206 207 205 207 208 214 224 227 231 234 236 233 225 223 226 213 219 214 220
190 106 132 67 296 274 193 222 319 272 205 200 148 87 123 105 59 42 31 27 20 234 218 205 200 205 207 208 209 210 215 231 230 231 233 237 238 229 222 227 233 228 226 224
89 135 167 104 206 177 274 213 204 236 188 212 161 169 105 90 44 36 26 23 20 27 200 204 204 203 207 210 214 217 220 228 239 232 230 235 238 238 237 234 234 230 233 232
270 260 140 190 299 172 175 206 236 257 275 217 156 147 93 81 62 47 35 32 32 31 56 162 188 199 209 211 213 219 223 225 229 235 228 228 232 237 240 244 246 240 237 235
23 269 168 111 124 181 296 323 256 225 199 254 260 101 112 98 76 73 59 48 45 47 46 59 88 158 206 216 215 218 220 225 229 229 236 234 233 232 234 244 251 246 238 237
2 192 159 167 168 179 211 150 257 269 285 209 233 125 137 117 100 72 69 64 54 51 53 62 73 71 77 102 198 224 226 227 230 234 233 234 231 232 242 243 249 251 249 243
277 104 322 191 67 77 160 142 322 268 233 206 219 129 140 118 96 86 74 72 68 59 52 51 53 55 65 86 165 165 194 227 228 228 235 237 240 242 252 247 244 247 251 250
338 144 59 62 60 75 114 114 48 90 343 274 134 139 129 113 97 79 77 69 64 58 51 44 41 37 38 44 50 105 224 223 221 232 232 238 244 245 244 251 246 245 248 251
0 142 152 113 55 21 235 180 150 121 106 98 130 115 119 121 110 89 70 63 58 52 48 43 38 34 27 24 27 37 332 267 250 243 242 241 242 241 241 246 248 241 241 245
323 157 205 191 168 262 236 217 198 139 163 155 180 115 146 130 103 73 65 55 47 40 36 32 27 24 23 18 12 10 21 15 263 250 262 258 247 244 239 241 241 243 240 237
178 182 206 157 188 223 80 90 173 176 124 143 111 117 110 111 109 99 67 50 31 20 14 11 9 7 7 6 6 6 3 7 7 274 252 246 243 245 253 247 243 243 242 238
272 209 176 216 215 84 169 185 177 181 148 134 139 147 134 136 174 148 52 27 12 359 354 349 346 348 349 351 353 354 358 359 349 353 330 283 265 257 252 248 250 248 245 241
185 269 242 195 228 230 83 139 152 167 179 154 175 153 153 235 223 99 17 355 346 341 339 336 334 334 332 335 340 340 342 346 344 340 338 332 299 266 253 259 254 256 250 247
182 206 220 209 230 218 113 146 156 213 96 139 144 147 154 279 333 342 330 333 331 328 326 321 322 320 321 323 326 328 327 330 327 326 326 326 324 305 275 260 258 263 261 255
191 197 201 217 223 230 156 149 223 99 126 134 141 162 300 310 310 319 320 318 317 317 322 321 316 311 310 310 313 311 313 315 315 315 314 312 316 321 308 275 263 258 259 265
230 242 249 232 59 114 164 76 132 156 188 191 220 223 262 285 303 314 317 316 313 312 314 319 314 309 307 303 299 298 299 302 305 305 306 305 299 305 307 306 283 266 269 267
218 235 248 318 173 168 167 154 150 143 136 140 150 167 181 312 337 340 341 337 332 324 318 316 315 311 307 303 296 289 292 294 295 294 297 300 300 294 296 296 299 292 278 275
209 164 212 250 221 206 212 201 182 166 158 151 156 160 170 283 316 330 336 339 335 329 324 323 317 316 312 305 296 292 286 285 285 285 288 292 298 301 294 292 291 285 278 268
199 202 195 207 215 207 156 193 181 175 176 178 179 194 224 272 306 321 333 339 343 336 327 315 315 319 312 314 305 292 285 278 275 274 277 281 282 292 293 294 289 277 279 272
Height
1506 1503 1500 1495 1492 1487 1484 1487 1494 1494 1500 1499 1503 1510 1520 1530 1535 1538 1541 1544 1548 1553 1559 1563 1567 1570 1574 1577 1579 1582 1585 1588 1591 1594 1598 1601 1603 1605 1606 1607 1606 1607 1608 1609
1505 1500 1492 1493 1497 1498 1493 1493 1502 1500 1501 1500 1506 1509 1516 1529 1533 1536 1540 1544 1546 1551 1556 1560 1565 1569 1572 1575 1578 1581 1584 1587 1590 1594 1598 1601 1603 1605 1605 1605 1607 1607 1608 1608
1494 1490 1495 1499 1501 1500 1494 1492 1499 1498 1501 1499 1503 1515 1515 1523 1534 1537 1541 1542 1544 1547 1551 1557 1562 1567 1571 1575 1577 1580 1583 1586 1589 1594 1596 1598 1600 1603 1605 1607 1608 1608 1608 1608
1490 1490 1496 1497 1497 1495 1496 1492 1496 1500 1500 1504 1495 1520 1519 1524 1531 1534 1537 1542 1541 1545 1550 1553 1559 1565 1570 1573 1576 1580 1583 1586 1589 1591 1596 1598 1601 1603 1605 1607 1609 1608 1609 1609
1489 1491 1494 1495 1492 1493 1489 1495 1498 1498 1498 1499 1498 1497 1518 1527 1531 1531 1534 1539 1541 1540 1544 1548 1554 1560 1566 1571 1574 1578 1581 1584 1588 1590 1594 1597 1600 1603 1604 1606 1607 1608 1608 1609
1484 1488 1490 1488 1490 1494 1496 1499 1501 1499 1494 1511 1488 1490 1519 1520 1528 1527 1530 1531 1533 1537 1540 1544 1549 1556 1563 1568 1572 1576 1578 1582 1585 1588 1592 1594 1598 1601 1603 1604 1607 1609 1610 1609
1490 1491 1494 1494 1492 1494 1496 1495 1509 1517 1513 1504 1483 1497 1520 1528 1531 1530 1529 1528 1525 1529 1536 1540 1545 1551 1557 1562 1568 1573 1576 1577 1582 1585 1588 1592 1595 1598 1601 1602 1603 1607 1609 1611
1489 1506 1495 1498 1490 1491 1492 1485 1488 1514 1505 1495 1495 1507 1528 1530 1531 1531 1530 1527 1524 1523 1528 1535 1540 1546 1553 1559 1564 1568 1572 1573 1577 1581 1585 1589 1592 1596 1599 1601 1603 1604 1607 1609
1481 1500 1501 1502 1498 1497 1490 1489 1474 1481 1471 1482 1494 1521 1524 1527 1531 1533 1535 1533 1527 1526 1524 1529 1535 1542 1548 1554 1560 1564 1568 1570 1573 1577 1581 1585 1588 1592 1597 1599 1601 1603 1604 1606
1486 1501 1500 1502 1501 1497 1488 1484 1496 1487 1502 1500 1501 1517 1517 1528 1535 1538 1537 1534 1530 1524 1525 1528 1532 1538 1546 1551 1556 1561 1564 1567 1570 1573 1577 1580 1584 1587 1590 1594 1597 1600 1603 1603
1490 1487 1503 1500 1500 1494 1497 1492 1490 1477 1481 1487 1504 1510 1525 1533 1541 1541 1540 1538 1534 1529 1528 1532 1533 1538 1543 1548 1552 1557 1561 1564 1567 1570 1573 1577 1580 1583 1586 1588 1591 1594 1598 1600
1497 1485 1495 1500 1510 1511 1502 1494 1491 1490 1496 1480 1473 1524 1530 1535 1541 1541 1541 1541 1538 1535 1533 1532 1530 1536 1543 1546 1549 1553 1557 1561 1564 1567 1568 1572 1575 1579 1582 1583 1587 1589 1592 1595
1501 1493 1504 1508 1507 1508 1502 1505 1502 1494 1485 1484 1489 1527 1530 1535 1540 1542 1543 1542 1542 1540 1539 1538 1537 1539 1538 1539 1544 1549 1553 1556 1560 1563 1564 1567 1570 1573 1575 1579 1582 1585 1587 1589
1506 1498 1497 1492 1495 1495 1507 1508 1506 1498 1489 1485 1493 1523 1530 1535 1539 1542 1545 1545 1545 1545 1545 1543 1541 1541 1540 1540 1541 1543 1546 1552 1556 1559 1561 1562 1563 1566 1569 1572 1577 1579 1582 1584
1504 1506 1504 1506 1508 1507 1510 1511 1510 1504 1503 1498 1504 1516 1529 1537 1542 1545 1546 1547 1547 1547 1547 1547 1547 1546 1545 1543 1543 1545 1547 1548 1549 1553 1557 1559 1561 1561 1563 1565 1568 1573 1575 1577
1510 1513 1509 1513 1516 1516 1513 1514 1517 1517 1513 1510 1507 1527 1536 1541 1544 1547 1549 1550 1550 1551 1552 1552 1552 1551 1549 1547 1546 1544 1543 1545 1546 1549 1551 1555 1557 1558 1559 1560 1561 1564 1567 1570
1512 1513 1515 1507 1519 1517 1517 1509 1512 1515 1518 1514 1517 1523 1536 1541 1545 1548 1549 1551 1552 1553 1554 1554 1554 1554 1553 1552 1549 1545 1543 1542 1544 1545 1548 1549 1551 1552 1553 1554 1556 1557 1559 1562
1516 1515 1514 1510 1519 1520 1516 1518 1515 1514 1521 1524 1528 1534 1538 1544 1547 1550 1553 1554 1554 1555 1555 1555 1555 1555 1554 1552 1551 1548 1545 1542 1541 1542 1541 1541 1544 1545 1548 1549 1549 1551 1553 1555
1520 1515 1517 1517 1510 1513 1518 1521 1519 1517 1525 1530 1530 1538 1541 1544 1545 1550 1553 1555 1556 1556 1556 1555 1555 1554 1553 1552 1551 1548 1547 1545 1541 1539 1538 1539 1540 1540 1541 1543 1544 1546 1547 1548
1521 1522 1519 1517 1521 1515 1507 1522 1526 1525 1520 1534 1534 1539 1541 1542 1535 1546 1554 1555 1555 1556 1556 1555 1553 1553 1552 1550 1550 1549 1548 1545 1542 1539 1538 1536 1536 1535 1535 1536 1538 1540 1542 1542
1523 1521 1521 1514 1517 1508 1518 1526 1527 1525 1528 1536 1538 1541 1543 1541 1544 1550 1551 1552 1553 1553 1553 1552 1552 1551 1550 1548 1547 1546 1545 1544 1540 1538 1537 1535 1532 1531 1530 1530 1530 1533 1536 1535
1518 1520 1517 1514 1518 1520 1522 1527 1524 1528 1534 1537 1540 1543 1544 1546 1548 1549 1550 1550 1550 1550 1549 1549 1548 1548 1548 1547 1545 1543 1542 1540 1537 1535 1534 1533 1531 1529 1527 1525 1524 1527 1528 1528
1521 1514 1516 1513 1510 1520 1524 1524 1529 1531 1534 1537 1540 1542 1544 1546 1547 1548 1548 1548 1547 1546 1545 1545 1544 1543 1542 1543 1542 1539 1538 1535 1534 1531 1530 1529 1528 1527 1525 1524 1522 1522 1521 1521
1520 1524 1521 1522 1516 1523 1526 1528 1530 1532 1535 1537 1540 1541 1543 1545 1546 1546 1545 1544 1544 1544 1542 1540 1539 1539 1537 1537 1537 1535 1534 1532 1529 1527 1526 1525 1523 1522 1521 1521 1520 1516 1515 1515
1518 1523 1521 1521 1521 1524 1525 1528 1530 1532 1534 1536 1538 1539 1541 1543 1544 1544 1544 1542 1540 1539 1538 1537 1535 1532 1531 1531 1530 1529 1529 1527 1525 1523 1521 1520 1520 1518 1514 1515 1515 1513 1512 1511
1516 1515 1518 1514 1513 1515 1517 1524 1528 1531 1534 1536 1538 1540 1541 1542 1542 1542 1542 1541 1538 1535 1533 1533 1530 1528 1526 1524 1523 1523 1522 1521 1519 1517 1517 1515 1513 1513 1513 1509 1506 1507 1505 1504